TOURFACTS.DK  
Stats and Facts from Tour de France.

Tour de France 2018 starts in 203 days
  Riders   Stages   Teams   Summits   Yearly  


 
Search by year

 2017 - St. 21:  14824 starters.
  5132 different riders.
  635 teams.
  2232 stages.
  454 restdays.
  439589.60 km.
  5653 abandonnees.


Top 3
Christopher Froome86:20:55
Rigoberto Uran86:21:49
Romain Bardet86:23:15
Warren Barguil169 pt.
Primoz Roglic80 pt.
Thomas De Gendt64 pt.
Michael Matthews359 pt.
André Greipel234 pt.
Edvald Boasson Hagen220 pt.
Simon Yates86:27:09
Louis Meintjes86:29:15
Emanuel Buchmann86:54:16
Facts from Tour de France 2015
  |   Stages.  |   Stage winners.  |   Days in yellow  |   Average speed.  |   Route.  |   Teams.  |   All riders.  |   Rookies.  |   Withdrawls.  |  

  |   GC.  |   Polka  |   Green  |   White  |   Summits. (In tour)  |   Summits. (Points)  |   Miscellaneous.  |  

Stage 19 on 24 - 07 - 2015
         Owning:    Christopher Froome      Joaquim Rodriguez      Peter Sagan      Nairo Quintana  

Pick a stage:  1 2 3 4 5 6 7 8 9 10 11 12 13 14 15 16 17 18 19 20 21
  Saint-Jean-de-MaurienneLa Toussuire | Dist: 138.00 km.
Cat: 1Col de ChaussyESPJoaquim Rodriguez
10 points
 
Cat: HCol de la Croix de FerFRAPierre Rolland
25 points
 
Cat: 2Col du MollardFRAPierre Rolland
5 points
 
Cat: 1La ToussuireITAVincenzo Nibali
20 points
 

Average speed for all riders in stage:  28,936 km./hr.
    Place:Name:Team:Time:Km/h:
ITAVincenzo NibaliKAZAstana Pro Team04:22:53  +  00:00:00=31,497 
COLNairo QuintanaESPMovistar Team04:23:37  +  00:00:44=31,409 
KENChristopher FroomeGBRSky Procycling04:24:07  +  00:01:14=31,350 
4 FRAThibaut PinotFRAFDJ04:25:19  +  00:02:26=31,208 
5 FRARomain BardetFRAAg2r La Mondiale04:25:19  +  00:02:26=31,208 
6 ESPAlejandro ValverdeESPMovistar Team04:25:19  +  00:02:26=31,208 
7 NEDBauke MollemaUSATrek Factory Racing04:25:19  +  00:02:26=31,208 
8 NEDRobert GesinkNLDTeam Lotto NL - Jumbo04:25:19  +  00:02:26=31,208 
9 ESPAlberto ContadorRUSTinkoff Saxo04:25:19  +  00:02:26=31,208 
10 ESPSamuel SanchezUSABMC Racing Team04:25:19  +  00:02:26=31,208 
11 FRAPierre RollandFRATeam Europcar04:25:28  +  00:02:35=31,190 
12 USAAndrew TalanskyUSATeam Cannondale - Garmin04:27:10  +  00:04:17=30,992 
13 ESPRubén PlazaITALampre-Merida04:27:46  +  00:04:53=30,922 
14 SUIMathias FrankCHEIAM Cycling04:27:55  +  00:05:02=30,905 
15 POLRafal MajkaRUSTinkoff Saxo04:27:55  +  00:05:02=30,905 
16 NEDWout PoelsGBRSky Procycling04:29:16  +  00:06:23=30,750 
17 CZERoman KreuzigerRUSTinkoff Saxo04:30:58  +  00:08:05=30,557 
18 ITAMichele ScarponiKAZAstana Pro Team04:30:58  +  00:08:05=30,557 
19 FRACyril GautierFRATeam Europcar04:30:58  +  00:08:05=30,557 
20 NEDSteven KruijswijkNLDTeam Lotto NL - Jumbo04:30:58  +  00:08:05=30,557 
21 BELSerge PauwelsZAFMTN - Qhubeka P/B Samsung04:32:45  +  00:09:52=30,357 
22 ESPJosé Herrada LópezESPMovistar Team04:33:46  +  00:10:53=30,245 
23 FRAAlexis VuillermozFRAAg2r La Mondiale04:34:34  +  00:11:41=30,157 
24 CZEJan BártaDEUBora-Argon 1804:34:34  +  00:11:41=30,157 
25 FRAMickaël CherelFRAAg2r La Mondiale04:34:34  +  00:11:41=30,157 
26 ERIMerhawi GhebremedhinZAFMTN - Qhubeka P/B Samsung04:34:34  +  00:11:41=30,157 
27 FRAPierrick FédrigoFRABretagne - Séché Environnement04:35:46  +  00:12:53=30,025 
28 URSTanel KangertKAZAstana Pro Team04:35:56  +  00:13:03=30,007 
29 FRARomain SicardFRATeam Europcar04:36:48  +  00:13:55=29,913 
30 FRAWarren BarguilDEUTeam Giant Alpecin04:37:55  +  00:15:02=29,793 
31 NEDStef ClementCHEIAM Cycling04:38:05  +  00:15:12=29,775 
32 FRASylvain ChavanelCHEIAM Cycling04:38:05  +  00:15:12=29,775 
33 ERIDaniel TeklehaimanotZAFMTN - Qhubeka P/B Samsung04:38:05  +  00:15:12=29,775 
34 COLJarlinson Pantano GomezCHEIAM Cycling04:38:05  +  00:15:12=29,775 
35 LUXBob JungelsUSATrek Factory Racing04:44:06  +  00:21:13=29,145 
36 ENGDaniel MartinUSATeam Cannondale - Garmin04:44:06  +  00:21:13=29,145 
37 BELThomas De GendtBELLotto Soudal04:44:53  +  00:22:00=29,065 
38 AUSMichael RogersRUSTinkoff Saxo04:44:53  +  00:22:00=29,065 
39 AUSAdam HansenBELLotto Soudal04:44:53  +  00:22:00=29,065 
40 SUIReto HollensteinCHEIAM Cycling04:44:53  +  00:22:00=29,065 
41 FRAAnthony DelaplaceFRABretagne - Séché Environnement04:44:53  +  00:22:00=29,065 
42 GERPaul VossDEUBora-Argon 1804:44:53  +  00:22:00=29,065 
43 SUIMichael SchärUSABMC Racing Team04:44:53  +  00:22:00=29,065 
44 SUIDanilo WyssUSABMC Racing Team04:44:53  +  00:22:00=29,065 
45 FRANicolas EdetFRACofidis – Solutions Crédits04:44:53  +  00:22:00=29,065 
46 ITADamiano CarusoUSABMC Racing Team04:44:53  +  00:22:00=29,065 
47 ESPRafael Valls FerriITALampre-Merida04:44:53  +  00:22:00=29,065 
48 FRABryan CoquardFRATeam Europcar04:44:53  +  00:22:00=29,065 
49 FRAAngelo TulikFRATeam Europcar04:44:53  +  00:22:00=29,065 
50 ESPJoaquim RodriguezRUSTeam Katusha04:44:53  +  00:22:00=29,065 
51 SVKPeter SaganRUSTinkoff Saxo04:44:53  +  00:22:00=29,065 
52 ENGStephen CummingsZAFMTN - Qhubeka P/B Samsung04:44:53  +  00:22:00=29,065 
53 WALGeraint ThomasGBRSky Procycling04:44:53  +  00:22:00=29,065 
54 BELJan BakelantsFRAAg2r La Mondiale04:44:53  +  00:22:00=29,065 
55 COLRigoberto UranBELEtixx - Quick Step04:44:53  +  00:22:00=29,065 
56 CANRyder HesjedalUSATeam Cannondale - Garmin04:44:53  +  00:22:00=29,065 
57 RSAJacques Janse Van RensburgZAFMTN - Qhubeka P/B Samsung04:44:53  +  00:22:00=29,065 
58 FRAPerrig QuemeneurFRATeam Europcar04:45:32  +  00:22:39=28,998 
59 DENLars BakBELLotto Soudal04:47:10  +  00:24:17=28,833 
60 PORNelson OliveiraITALampre-Merida04:48:23  +  00:25:30=28,712 
61 CZELeopold KönigGBRSky Procycling04:48:23  +  00:25:30=28,712 
62 BELStijn DevolderUSATrek Factory Racing04:48:49  +  00:25:56=28,669 
63 FRAGeoffrey SoupeFRACofidis – Solutions Crédits04:50:34  +  00:27:41=28,496 
64 SUIMarcel WyssCHEIAM Cycling04:51:29  +  00:28:36=28,406 
65 AUSRohan DennisUSABMC Racing Team04:51:29  +  00:28:36=28,406 
66 SUIMartin ElmigerCHEIAM Cycling04:51:29  +  00:28:36=28,406 
67 ITADaniel OssUSABMC Racing Team04:51:29  +  00:28:36=28,406 
68 NEDDylan Van BaarleUSATeam Cannondale - Garmin04:51:29  +  00:28:36=28,406 
69 FRAAlexandre GeniezFRAFDJ04:51:29  +  00:28:36=28,406 
70 FRAThomas VoecklerFRATeam Europcar04:51:29  +  00:28:36=28,406 
71 FRABryan NauleauFRATeam Europcar04:51:29  +  00:28:36=28,406 
72 ITAGiampaolo CarusoRUSTeam Katusha04:51:29  +  00:28:36=28,406 
73 ITAMatteo TosattoRUSTinkoff Saxo04:51:29  +  00:28:36=28,406 
74 ESPHaimar ZubeldiaUSATrek Factory Racing04:51:29  +  00:28:36=28,406 
75 NEDKoen De KortDEUTeam Giant Alpecin04:51:29  +  00:28:36=28,406 
76 FRAMatthieu LadagnousFRAFDJ04:51:29  +  00:28:36=28,406 
77 ITAAdriano MaloriESPMovistar Team04:51:29  +  00:28:36=28,406 
78 WALLuke RoweGBRSky Procycling04:51:29  +  00:28:36=28,406 
79 FRAJulien SimonFRACofidis – Solutions Crédits04:51:29  +  00:28:36=28,406 
80 FRAJérémy RoyFRAFDJ04:51:29  +  00:28:36=28,406 
81 KAZDmitriy GruzdevKAZAstana Pro Team04:51:29  +  00:28:36=28,406 
82 FRABenoit VaugrenardFRAFDJ04:51:29  +  00:28:36=28,406 
83 BELSep VanmarckeNLDTeam Lotto NL - Jumbo04:51:29  +  00:28:36=28,406 
84 SUIJakob FuglsangKAZAstana Pro Team04:51:29  +  00:28:36=28,406 
85 ESPDaniel NavarroFRACofidis – Solutions Crédits04:51:29  +  00:28:36=28,406 
86 NEDRoy CurversDEUTeam Giant Alpecin04:51:29  +  00:28:36=28,406 
87 BELJens DebusschereBELLotto Soudal04:51:29  +  00:28:36=28,406 
88 PORTiago PintoRUSTeam Katusha04:51:29  +  00:28:36=28,406 
89 SLOKristjan KorenUSATeam Cannondale - Garmin04:51:29  +  00:28:36=28,406 
90 AUTGeorg PreidlerDEUTeam Giant Alpecin04:51:29  +  00:28:36=28,406 
91 FRAJean-Christophe PeraudFRAAg2r La Mondiale04:51:29  +  00:28:36=28,406 
92 UKRAndriy GrivkoKAZAstana Pro Team04:51:29  +  00:28:36=28,406 
93 GERSimon GeschkeDEUTeam Giant Alpecin04:51:29  +  00:28:36=28,406 
94 FRAFrédéric BrunFRABretagne - Séché Environnement04:51:29  +  00:28:36=28,406 
95 ITAMatteo BonoITALampre-Merida04:51:29  +  00:28:36=28,406 
96 NEDAlbert TimmerDEUTeam Giant Alpecin04:51:29  +  00:28:36=28,406 
97 GEREmanuel BuchmannDEUBora-Argon 1804:51:29  +  00:28:36=28,406 
98 HRVKristijan DurasekITALampre-Merida04:51:29  +  00:28:36=28,406 
99 ITAManuel QuinziatoUSABMC Racing Team04:51:29  +  00:28:36=28,406 
100 ESPAlberto LosadaRUSTeam Katusha04:51:29  +  00:28:36=28,406 
101 ESPLuis Angel MateFRACofidis – Solutions Crédits04:51:29  +  00:28:36=28,406 
102 ITAFilippo PozzatoITALampre-Merida04:51:29  +  00:28:36=28,406 
103 GERJohn DegenkolbDEUTeam Giant Alpecin04:51:29  +  00:28:36=28,406 
104 ENGAdam YatesAUSOrica - GreenEDGE04:51:29  +  00:28:36=28,406 
105 AUSRichie PorteGBRSky Procycling04:51:29  +  00:28:36=28,406 
106 FRAYohann GèneFRATeam Europcar04:51:29  +  00:28:36=28,406 
107 COLJulián ArredondoUSATrek Factory Racing04:51:29  +  00:28:36=28,406 
108 FRANicolas RocheGBRSky Procycling04:51:29  +  00:28:36=28,406 
109 ENGIan StannardGBRSky Procycling04:51:29  +  00:28:36=28,406 
110 NEDLieuwe WestraKAZAstana Pro Team04:51:29  +  00:28:36=28,406 
111 FRABrice FeilluFRABretagne - Séché Environnement04:51:29  +  00:28:36=28,406 
112 BELTim WellensBELLotto Soudal04:51:29  +  00:28:36=28,406 
113 NEDPieter WeeningAUSOrica - GreenEDGE04:51:36  +  00:28:43=28,395 
114 CZEZdenek StybarBELEtixx - Quick Step04:52:05  +  00:29:12=28,348 
115 BELJulien VermoteBELEtixx - Quick Step04:52:05  +  00:29:12=28,348 
116 FRAArnaud GérardFRABretagne - Séché Environnement04:52:05  +  00:29:12=28,348 
117 SUIGregory RastUSATrek Factory Racing04:52:05  +  00:29:12=28,348 
118 FRAPierre-Luc PérichonFRABretagne - Séché Environnement04:52:05  +  00:29:12=28,348 
119 IOMMark CavendishBELEtixx - Quick Step04:52:05  +  00:29:12=28,348 
120 NEDWilco KeldermanNLDTeam Lotto NL - Jumbo04:52:05  +  00:29:12=28,348 
121 ESPMarkel IrizarUSATrek Factory Racing04:52:05  +  00:29:12=28,348 
122 COLJosé SerpaITALampre-Merida04:52:05  +  00:29:12=28,348 
123 FRAChristophe LaporteFRACofidis – Solutions Crédits04:52:05  +  00:29:12=28,348 
124 FRAFlorian SénéchalFRACofidis – Solutions Crédits04:52:05  +  00:29:12=28,348 
125 AUSMichael MatthewsAUSOrica - GreenEDGE04:52:05  +  00:29:12=28,348 
126 FRAArmindo FonsecaFRABretagne - Séché Environnement04:52:05  +  00:29:12=28,348 
127 FRAFlorian VachonFRABretagne - Séché Environnement04:52:05  +  00:29:12=28,348 
128 ESPImanol ErvitiESPMovistar Team04:52:05  +  00:29:12=28,348 
129 RSAReinardt Janse Van RensburgZAFMTN - Qhubeka P/B Samsung04:52:05  +  00:29:12=28,348 
130 GERPaul MartensNLDTeam Lotto NL - Jumbo04:52:05  +  00:29:12=28,348 
131 NEDJos Van EmdenNLDTeam Lotto NL - Jumbo04:52:05  +  00:29:12=28,348 
132 FRASébastien ChavanelFRAFDJ04:52:05  +  00:29:12=28,348 
133 URSRamunas NavardauskasUSATeam Cannondale - Garmin04:52:05  +  00:29:12=28,348 
134 AUTMarco HallerRUSTeam Katusha04:52:05  +  00:29:12=28,348 
135 ITAMatteo TrentinBELEtixx - Quick Step04:52:05  +  00:29:12=28,348 
136 NEDBram TankinkNLDTeam Lotto NL - Jumbo04:52:05  +  00:29:12=28,348 
137 PORJosé João PimentaDEUBora-Argon 1804:52:05  +  00:29:12=28,348 
138 POLMichal GolasBELEtixx - Quick Step04:52:05  +  00:29:12=28,348 
139 NEDLaurens ten DamNLDTeam Lotto NL - Jumbo04:52:05  +  00:29:12=28,348 
140 FRAArnaud DémareFRAFDJ04:52:05  +  00:29:12=28,348 
141 ESPJonathan CastroviejoESPMovistar Team04:52:05  +  00:29:12=28,348 
142 NOREdvald Boasson HagenZAFMTN - Qhubeka P/B Samsung04:52:05  +  00:29:12=28,348 
143 FRATony GallopinBELLotto Soudal04:52:05  +  00:29:12=28,348 
144 AUSLuke DurbridgeAUSOrica - GreenEDGE04:52:05  +  00:29:12=28,348 
145 POLBartosz HuzarskiDEUBora-Argon 1804:52:05  +  00:29:12=28,348 
146 GERMarcel SiebergBELLotto Soudal04:52:05  +  00:29:12=28,348 
147 AUTMatthias BrändleCHEIAM Cycling04:52:05  +  00:29:12=28,348 
148 ITADavide CimolaiITALampre-Merida04:52:05  +  00:29:12=28,348 
149 ENGSimon YatesAUSOrica - GreenEDGE04:52:05  +  00:29:12=28,348 
150 CANSvein TuftAUSOrica - GreenEDGE04:52:05  +  00:29:12=28,348 
151 NEDTom LeezerNLDTeam Lotto NL - Jumbo04:52:05  +  00:29:12=28,348 
152 USATyler FarrarZAFMTN - Qhubeka P/B Samsung04:52:05  +  00:29:12=28,348 
153 FRAChristophe RiblonFRAAg2r La Mondiale04:52:05  +  00:29:12=28,348 
154 GERAndré GreipelBELLotto Soudal04:52:05  +  00:29:12=28,348 
155 ESPGorka Izaguirre InsaustiESPMovistar Team04:52:05  +  00:29:12=28,348 
156 FRADamien GaudinFRAAg2r La Mondiale04:52:05  +  00:29:12=28,348 
157 NORAlexander KristoffRUSTeam Katusha04:52:05  +  00:29:12=28,348 
158 COLWinner AnaconaESPMovistar Team04:52:05  +  00:29:12=28,348 
159 BELKenneth VanbilsenFRACofidis – Solutions Crédits04:52:05  +  00:29:12=28,348 
160 ITAJacopo GuarnieriRUSTeam Katusha04:53:23  +  00:30:30=28,222 

Withdrawls: 1
 
Rider
Team
Reason
49  DENMichael ValgrenRUSTinkoff SaxoDid not finish

Todays birthdays.

1874  Henri Timmermann
1877  Gustave Guillarme
1886  Guillaume Nyssen
1892  Albert Cartigny
1913  Arsène Mersch
1919  Jean Breuer
1927  Alfred Kain
1930  Edgard Sorgeloos
1937  Frans De Mulder
1960  Jacques Hanegraaf
1986  Andrey Zeits